Weather History for Cherry Point, NC

Change the Weather History Date:

Tuesday, June 25, 2013

  Actual Average Record
Temperature  
Mean Temperature 80 °F -  
Max Temperature 90 °F 85 °F 93 °F (2003)
Min Temperature 71 °F 67 °F 64 °F (2001)
Cooling Degree Days 15    
Growing Degree Days 30 (Base 50)    
Moisture  
Dew Point 72 °F    
Average Humidity 80    
Maximum Humidity 94    
Minimum Humidity 57    
Precipitation  
Precipitation 0.00 in - - ()
Sea Level Pressure  
Sea Level Pressure 30.11 in    
Wind  
Wind Speed 8 mph ()    
Max Wind Speed 17 mph    
Max Gust Speed 21 mph    
Visibility 9.4 miles    
Events Rain , Thunderstorm    
Averages and records for this station are not official NWS values.
T = Trace of Precipitation, MM = Missing Value Source: Averaged Metar Reports

Daily Weather History Graph

Daily Weather History Graph

Search for Another Location

Airport:

Trip Planner

Search our weather history database for the weather conditions in past years. The results will help you decide how hot, cold, wet, or windy it might be!

Date:

Astronomy

Jun. 25, 2013 Rise Set
Actual Time 5:55 AM EDT 8:25 PM EDT
Civil Twilight 5:25 AM EDT 8:54 PM EDT
Nautical Twilight 4:49 AM EDT 9:31 PM EDT
Astronomical Twilight 4:08 AM EDT 10:11 PM EDT
Moon 10:16 PM EDT (6/25) 8:26 AM EDT (6/25)
Length of Visible Light 15h 29m
Length of Day
14h 29m
Waning Gibbous, 93% of the Moon is Illuminated
Jun 25
Waning Gibbous
Jun 30
Last Quarter
Jul 8
New
Jul 15
First Quarter
Jul 22
Full

Hourly Weather History & Observations

Time (EDT) Temp. Heat Index Dew Point Humidity Pressure Visibility Wind Dir Wind Speed Gust Speed Precip Events Conditions
12:54 AM 75.9 °F - 73.0 °F 91% 30.16 in 10.0 mi SW 5.8 mph - N/A   Scattered Clouds
1:54 AM 75.9 °F - 72.0 °F 87% 30.14 in 10.0 mi SSW 6.9 mph - N/A   Partly Cloudy
2:54 AM 75.0 °F - 72.0 °F 90% 30.14 in 10.0 mi SW 4.6 mph - N/A   Partly Cloudy
3:54 AM 75.0 °F - 73.0 °F 94% 30.14 in 9.0 mi SW 8.1 mph - N/A   Scattered Clouds
4:54 AM 75.0 °F - 73.0 °F 94% 30.14 in 10.0 mi SW 8.1 mph - N/A   Partly Cloudy
5:54 AM 75.0 °F - 73.0 °F 94% 30.15 in 10.0 mi SSW 6.9 mph - N/A   Clear
6:54 AM 75.9 °F - 73.0 °F 91% 30.15 in 10.0 mi SW 8.1 mph - N/A   Mostly Cloudy
7:36 AM 75.9 °F - 73.0 °F 91% 30.15 in 10.0 mi SW 8.1 mph - N/A   Mostly Cloudy
7:54 AM 77.0 °F - 73.0 °F 88% 30.15 in 10.0 mi SW 10.4 mph - N/A   Mostly Cloudy
8:54 AM 80.1 °F 84.2 °F 73.0 °F 79% 30.14 in 10.0 mi WSW 15.0 mph - N/A   Mostly Cloudy
9:54 AM 82.9 °F 88.0 °F 72.0 °F 69% 30.13 in 10.0 mi WSW 13.8 mph - N/A   Scattered Clouds
10:25 AM 82.9 °F 87.5 °F 71.1 °F 67% 30.13 in 10.0 mi WSW 15.0 mph - N/A   Scattered Clouds
10:54 AM 84.0 °F 89.6 °F 72.0 °F 67% 30.13 in 10.0 mi WSW 12.7 mph - N/A   Mostly Cloudy
11:54 AM 87.1 °F 92.8 °F 71.1 °F 59% 30.13 in 10.0 mi SW 17.3 mph - N/A   Mostly Cloudy
12:54 PM 88.0 °F 93.8 °F 71.1 °F 57% 30.11 in 10.0 mi WSW 16.1 mph 20.7 mph N/A   Mostly Cloudy
1:54 PM 87.1 °F 94.5 °F 73.0 °F 63% 30.10 in 10.0 mi SW 12.7 mph - N/A   Mostly Cloudy
2:54 PM 89.1 °F 97.0 °F 73.0 °F 59% 30.08 in 10.0 mi SW 8.1 mph - N/A   Scattered Clouds
3:54 PM 87.1 °F 96.3 °F 75.0 °F 67% 30.07 in 10.0 mi SW 13.8 mph - 0.00 in Rain Light Rain
4:54 PM 86.0 °F 93.8 °F 73.9 °F 67% 30.05 in 10.0 mi SSW 9.2 mph - 0.00 in   Mostly Cloudy
5:54 PM 84.0 °F 90.2 °F 73.0 °F 69% 30.05 in 10.0 mi SW 12.7 mph - N/A   Mostly Cloudy
6:45 PM 81.0 °F 85.8 °F 73.0 °F 77% 30.08 in 10.0 mi WSW 13.8 mph - N/A Thunderstorm Mostly Cloudy
7:10 PM 75.9 °F - 68.0 °F 76% 30.10 in 1.8 mi NNW 9.2 mph - 0.00 in Rain , Thunderstorm Heavy Thunderstorms and Rain
7:25 PM 73.9 °F - 69.1 °F 85% 30.11 in 6.0 mi WSW 13.8 mph - N/A Thunderstorm Unknown
7:54 PM 73.0 °F - 69.1 °F 87% 30.09 in 10.0 mi SW 8.1 mph - N/A Thunderstorm Thunderstorm
8:54 PM 72.0 °F - 69.1 °F 91% 30.04 in 6.0 mi SSW 9.2 mph - N/A Rain Light Rain
9:54 PM 71.1 °F - 68.0 °F 90% 30.03 in 10.0 mi SSW 4.6 mph - N/A   Mostly Cloudy
10:54 PM 72.0 °F - 68.0 °F 87% 30.06 in 10.0 mi SW 6.9 mph - N/A   Clear
11:54 PM 71.1 °F - 68.0 °F 90% 30.07 in 10.0 mi South 3.5 mph - N/A   Mostly Cloudy